Regional Weather Roundup
Issued by NWS

Home | Current Version | Previous Version | Graphics & Text | Print | Product List | Glossary On
Versions: 1 2 3 4 5 6 7 8 9 10 11 12 13 14 15 16 17 18 19 20 21 22 23 24 25 26 27
000
ASUS45 KBOU 210607
RWRCO

WEATHER ROUNDUP FOR COLORADO
NATIONAL WEATHER SERVICE DENVER/BOULDER CO
1200 AM MDT SAT OCT 21 2017

NOTE: "FAIR" INDICATES FEW OR NO CLOUDS BELOW 12000 FEET WITH NO
SIGNIFICANT WEATHER AND/OR OBSTRUCTIONS TO VISIBILITY.

COZ001>005-013-030-031-210700-
...NORTHWEST COLORADO...

CITY           SKY/WX    TMP DP  RH WIND       PRES   REMARKS
CRAIG          LGT SNOW  33  31  92 SE5       29.95R FOG     WCI  29
HAYDEN         LGT SNOW  30  30 100 W7        29.95S FOG     WCI  23
MEEKER         CLOUDY    34  33  96 CALM      29.93R
RABBIT EARS PA HVY SNOW  23  21  93 MISG      29.88R VSB 1/4
STEAMBOAT SPGS CLOUDY    31  31 100 W8        29.92R VSB 1/2 WCI  24
WALDEN         NOT AVBL
$$

COZ006>008-011-210700-
...WEST CENTRAL VALLEYS...

CITY           SKY/WX    TMP DP  RH WIND       PRES   REMARKS
GRAND JUNCTION CLOUDY    51  22  31 NW17      29.84R
MONTROSE       CLOUDY    52  37  56 S12       29.84R
EAGLE          LGT RAIN  41  36  82 N6        29.86R
RIFLE          LGT RAIN  44  35  70 NW9       29.89R
DELTA          FAIR      56  37  48 W15G22    29.81R
NUCLA          MOCLDY    54  30  40 W17       29.90R
$$

COZ017>023-064>068-210700-
...SOUTHWEST COLORADO...

CITY           SKY/WX    TMP DP  RH WIND       PRES   REMARKS
DURANGO        CLOUDY    57  26  30 W25G39    29.84R
CORTEZ         MOCLDY    59  27  29 W22G30    29.84R
PAGOSA SPRINGS CLOUDY    56  22  27 W21G36    29.85R
TELLURIDE      LGT SNOW  35  35  98 W5        29.98R WCI  31
WOLF CREEK PAS CLOUDY    32  23  69 SW32G48   30.00R WCI  17
$$

COZ009-010-012-014-032>034-037-058>063-210700-
...CENTRAL COLORADO...

CITY           SKY/WX    TMP DP  RH WIND       PRES   REMARKS
ASPEN          LGT SNOW  35  33  92 N14G23    29.86R FOG     WCI  26
BUENA VISTA    DRIZZLE   43  35  74 CALM      29.78F
COPPER MTN     LGT SNOW  34  30  86 MISG      29.89F
BERTHOUD PASS  HVY SNOW  27  16  63 SW8       29.91S VSB 1/4 WCI  18
COTTONWOOD PAS CLOUDY    41  37  87 W12       29.83F
GUNNISON       LGT RAIN  42  37  82 SW13      29.86R
KREMMLING      CLOUDY    37  32  81 NW13      29.87R
LEADVILLE      LGT SNOW  33  31  92 CALM      29.83S FOG
MONARCH PASS   HVY SNOW  30  28  93 SW36G52   30.01S VSB<1/4 WCI  14
SALIDA         MOCLDY    49  38  67 W20G37    29.86R
SUNLIGHT       HVY SNOW  25  23  93 W17       29.92R VSB 1/4 WCI  11
WILKERSON PASS MOCLDY    36  19  51 SW18G32   29.90S
$$

COZ069>075-210700-
...SAN LUIS VALLEY/SANGRE DE CRISTO MOUNTAINS...

CITY           SKY/WX    TMP DP  RH WIND       PRES   REMARKS
ALAMOSA        FAIR      51  29  42 SW14      29.79S
DEL NORTE      FAIR      48  31  50 SW23G38   29.82F
LA VETA PASS   FAIR      43  27  52 S29G49    29.98F
SAGUACHE       CLOUDY    48  32  53 W9        29.81S
$$

COZ035-036-038>040-210700-
...NORTHERN COLORADO FRONT RANGE...

CITY           SKY/WX    TMP DP  RH WIND       PRES   REMARKS
DENVER INTL AP MOCLDY    61  25  25 SW16      29.56R
DMNS CITY PARK   N/A     53  28  38 SE9       29.56S
AURORA         MOCLDY    60  26  28 S9        29.57R
FRONT RANGE AP FAIR      61  28  29 S8        29.57R
ERIE MUNI ARPT FAIR      60  31  33 W20G33    29.60R
BOULDER MUN AP FAIR      59  32  36 SW17G26   29.53F
CENTENNIAL     MOCLDY    59  25  27 SE5       29.59R
BROOMFIELD     FAIR      57  30  35 W17G25    29.57S
FORT COLLINS   FAIR      53  37  54 NE7       29.54R
LONGMONT       FAIR      61  32  33 CALM      29.55F
$$

COZ041-046-047-076>085-087-088-210700-
...PIKES PEAK/PALMER DIVIDE AND SOUTHERN FOOTHILLS...

CITY           SKY/WX    TMP DP  RH WIND       PRES   REMARKS
COLO. SPRINGS  MOCLDY    56  25  30 SE10      29.64S
A. F. ACADEMY  FAIR      63  21  20 SW13G28   29.61F
SCHRIEVER AFB  FAIR      56  23  27 SW9       29.64F
CHEYENNE MTN   MOCLDY    59  22  23 SE5G16    29.58F
ELLICOTT         N/A    N/A N/A N/A SW8       29.63S
FALCON         FAIR      56  21  25 S15       29.67S
FORT CARSON    FAIR      57  24  28 SE10      29.60F
LIMON          FAIR      59  25  27 SW9       29.57S
MONUMENT HILL  FAIR      54  23  30 SW8G16    29.67F
CANON CITY     FAIR      55  28  35 W7        29.62R
WALSENBURG     FAIR      64  28  25 SW32G44   29.61F
TRINIDAD       FAIR      58  31  35 S10       29.68F
$$

COZ042>045-048>051-090-091-210700-
...NORTHEAST COLORADO...

CITY           SKY/WX    TMP DP  RH WIND       PRES   REMARKS
GREELEY ARPT   FAIR      54  34  46 N28G38    29.54R
AKRON          FAIR      60  28  29 W16       29.50R
BURLINGTON     FAIR      58  35  42 S15       29.52F
WRAY           NOT AVBL
YUMA           NOT AVBL
STERLING       FAIR      55  37  50 N20G28    29.49R
HOLYOKE        FAIR      52  43  71 S6        29.44F
FORT MORGAN    FAIR      54  33  45 N26G38    29.53R
$$

COZ086-089-092>099-210700-
...SOUTHEAST COLORADO...

CITY           SKY/WX    TMP DP  RH WIND       PRES   REMARKS
PUEBLO         FAIR      63  28  26 SW8       29.56F
LA JUNTA       FAIR      62  33  33 SW8       29.57S
LAMAR          FAIR      63  35  35 SW15      29.53S
SPRINGFIELD      N/A     57  39  51 SW12      29.64F
$$




USA.gov is the U.S. government's official web portal to all federal, state and local government web resources and services.